Rochelle, IL

3:43 PM CST on November 16, 2019 (GMT -0600)
Rochelle

Weather History for KRPJ - September, 2019

Change the Weather History Date:

Friday, September 27, 2019

  Actual Average (KRFD) Record (KRFD)
Temperature  
Mean Temperature 59 °F -  
Max Temperature 67 °F 70 °F 89 °F (1954)
Min Temperature 51 °F 46 °F 29 °F (1942)
Degree Days  
Heating Degree Days 6    
Growing Degree Days 9 (Base 50)    
Moisture  
Dew Point 57 °F    
Average Humidity 88    
Maximum Humidity 100    
Minimum Humidity 60    
Precipitation  
Precipitation 0.56 in - - ()
Sea Level Pressure  
Sea Level Pressure 29.77 in    
Wind  
Wind Speed 6 mph ()    
Max Wind Speed 14 mph    
Max Gust Speed 18 mph    
Visibility 7.7 miles    
Events Rain , Thunderstorm    
Averages and records for this station are not official NWS values.
T = Trace of Precipitation, MM = Missing Value Source: Averaged Metar Reports

Daily Weather History Graph

Daily Weather History Graph

Search for Another Location

Airport or City:

Astronomy

Sep. 27, 2019 Rise Set
Actual Time 6:48 AM CDT 6:45 PM CDT
Civil Twilight 6:20 AM CDT 7:12 PM CDT
Nautical Twilight 5:48 AM CDT 7:45 PM CDT
Astronomical Twilight 5:15 AM CDT 8:18 PM CDT
Moon 5:07 AM CDT (9/27) 6:37 PM CDT (9/27)
Length of Visible Light 12h 51m
Length of Day
11h 56m
Waning Crescent, 2% of the Moon is Illuminated
Sep 27
Waning Crescent
Sep 28
New
Oct 5
First Quarter
Oct 13
Full
Oct 21
Last Quarter

Hourly Weather History & Observations

Time (CDT) Temp. Dew Point Humidity Pressure Visibility Wind Dir Wind Speed Gust Speed Precip Events Conditions
12:15 AM 52.3 °F 51.1 °F 95% 29.90 in 10.0 mi South 4.6 mph - N/A   Clear
12:35 AM 52.0 °F 50.7 °F 95% 29.90 in 10.0 mi South 4.6 mph - N/A   Clear
12:50 AM 51.8 °F 50.2 °F 94% 29.89 in 10.0 mi SSE 4.6 mph - N/A   Clear
1:15 AM 53.8 °F 50.2 °F 88% 29.87 in 10.0 mi SSE 5.8 mph - N/A   Mostly Cloudy
1:40 AM 55.9 °F 49.1 °F 78% 29.87 in 10.0 mi SSE 5.8 mph - N/A   Overcast
1:55 AM 56.5 °F 49.1 °F 76% 29.87 in 10.0 mi Calm Calm - N/A   Overcast
2:15 AM 55.9 °F 51.3 °F 84% 29.86 in 10.0 mi South 3.5 mph - N/A   Overcast
2:35 AM 57.6 °F 48.6 °F 72% 29.85 in 10.0 mi South 5.8 mph - N/A   Overcast
2:55 AM 57.4 °F 49.5 °F 75% 29.84 in 10.0 mi South 5.8 mph - N/A   Overcast
3:15 AM 57.7 °F 48.7 °F 72% 29.83 in 10.0 mi South 6.9 mph - N/A   Overcast
3:35 AM 59.0 °F 47.3 °F 65% 29.83 in 10.0 mi South 6.9 mph - N/A Rain Light Rain
3:55 AM 59.4 °F 46.6 °F 63% 29.83 in 10.0 mi South 6.9 mph - N/A   Overcast
4:15 AM 59.4 °F 46.4 °F 62% 29.82 in 10.0 mi South 9.2 mph - N/A   Overcast
4:35 AM 59.0 °F 46.6 °F 63% 29.82 in 10.0 mi SSE 8.1 mph - N/A   Overcast
4:55 AM 59.0 °F 47.3 °F 65% 29.82 in 10.0 mi South 5.8 mph - N/A   Overcast
5:15 AM 58.8 °F 47.5 °F 66% 29.82 in 10.0 mi SSE 4.6 mph - N/A   Overcast
5:35 AM 58.1 °F 47.3 °F 67% 29.81 in 10.0 mi SSE 5.8 mph - N/A   Overcast
5:55 AM 57.4 °F 48.4 °F 72% 29.81 in 10.0 mi SSE 5.8 mph - N/A   Mostly Cloudy
6:15 AM 59.7 °F 46.2 °F 61% 29.80 in 10.0 mi South 10.4 mph - N/A   Mostly Cloudy
6:35 AM 60.1 °F 46.2 °F 60% 29.79 in 10.0 mi SSE 8.1 mph - N/A   Mostly Cloudy
6:55 AM 59.7 °F 47.1 °F 63% 29.79 in 10.0 mi South 10.4 mph - N/A   Overcast
7:15 AM 59.5 °F 47.3 °F 64% 29.79 in 10.0 mi South 10.4 mph - N/A   Overcast
7:35 AM 59.5 °F 47.7 °F 65% 29.78 in 10.0 mi SSE 10.4 mph - N/A   Overcast
7:55 AM 60.1 °F 48.2 °F 65% 29.77 in 10.0 mi SSE 9.2 mph - N/A   Overcast
8:15 AM 60.8 °F 48.6 °F 64% 29.76 in 10.0 mi SSE 11.5 mph 16.1 mph N/A   Overcast
8:35 AM 61.2 °F 48.7 °F 64% 29.75 in 10.0 mi SSE 10.4 mph 16.1 mph N/A   Mostly Cloudy
8:55 AM 61.0 °F 49.1 °F 65% 29.74 in 10.0 mi SSE 9.2 mph 17.3 mph N/A Thunderstorm Mostly Cloudy
9:15 AM 60.6 °F 49.5 °F 67% 29.79 in 10.0 mi South 8.1 mph - N/A Thunderstorm Thunderstorm
9:35 AM 59.7 °F 51.8 °F 75% 29.77 in 7.0 mi South 5.8 mph - 0.01 in Rain , Thunderstorm Heavy Thunderstorms and Rain
9:55 AM 56.7 °F 54.0 °F 91% 29.79 in 5.0 mi SSW 4.6 mph - 0.08 in Rain , Thunderstorm Rain
10:15 AM 56.5 °F 55.4 °F 96% 29.80 in 4.0 mi Calm Calm - 0.04 in Rain Rain
10:35 AM 56.7 °F 56.3 °F 99% 29.81 in 5.0 mi Calm Calm - 0.07 in Rain , Thunderstorm Rain
10:55 AM 56.5 °F 56.3 °F 99% 29.82 in 4.0 mi South 5.8 mph - 0.13 in Rain , Thunderstorm Rain
11:15 AM 56.5 °F 56.3 °F 99% 29.79 in 7.0 mi SSE 11.5 mph 16.1 mph 0.02 in Rain , Thunderstorm Light Thunderstorms and Rain
11:35 AM 56.7 °F 56.5 °F 99% 29.77 in 10.0 mi SSE 9.2 mph - 0.02 in Rain , Thunderstorm Light Thunderstorms and Rain
11:55 AM 57.0 °F 56.7 °F 99% 29.76 in 4.0 mi SSE 11.5 mph - 0.05 in   Overcast
12:15 PM 57.6 °F 57.6 °F 100% 29.74 in 7.0 mi SSE 9.2 mph - 0.03 in Rain , Thunderstorm Light Thunderstorms and Rain
12:35 PM 58.5 °F 58.5 °F 100% 29.75 in 10.0 mi South 10.4 mph - 0.03 in Rain Light Rain
12:55 PM 59.4 °F 59.4 °F 100% 29.69 in 10.0 mi SSE 8.1 mph - 0.03 in   Mostly Cloudy
1:15 PM 60.3 °F 60.3 °F 100% 29.72 in 10.0 mi South 13.8 mph 18.4 mph N/A   Mostly Cloudy
1:35 PM 61.2 °F 61.2 °F 100% 29.72 in 7.0 mi South 10.4 mph 17.3 mph N/A   Overcast
1:55 PM 62.4 °F 62.4 °F 100% 29.69 in 10.0 mi South 8.1 mph - N/A Thunderstorm Overcast
2:15 PM 63.7 °F 63.7 °F 100% 29.70 in 10.0 mi South 12.7 mph 16.1 mph N/A   Overcast
2:35 PM 64.6 °F 64.6 °F 100% 29.69 in 10.0 mi South 11.5 mph 17.3 mph N/A   Overcast
2:55 PM 65.3 °F 65.3 °F 100% 29.69 in 10.0 mi South 11.5 mph - N/A   Overcast
3:15 PM 66.2 °F 66.2 °F 100% 29.69 in 10.0 mi South 11.5 mph - N/A   Overcast
3:35 PM 66.4 °F 66.2 °F 99% 29.70 in 10.0 mi SSW 6.9 mph - N/A   Overcast
3:55 PM 66.2 °F 66.2 °F 100% 29.70 in 3.0 mi South 4.6 mph - N/A   Drizzle
4:15 PM 66.4 °F 66.4 °F 100% 29.70 in 4.0 mi SSW 5.8 mph - N/A   Drizzle
4:35 PM 67.1 °F 67.1 °F 100% 29.69 in 5.0 mi SW 4.6 mph - N/A   Light Drizzle
4:55 PM 67.5 °F 67.5 °F 100% 29.70 in 10.0 mi SSW 5.8 mph - N/A   Overcast
5:15 PM 67.3 °F 67.3 °F 100% 29.70 in 2.0 mi SSW 5.8 mph - N/A Rain Rain
5:35 PM 67.3 °F 67.3 °F 100% 29.71 in 3.0 mi Calm Calm - 0.01 in   Drizzle
5:55 PM 67.1 °F 67.1 °F 100% 29.70 in 5.0 mi Calm Calm - 0.02 in Rain Light Rain
6:15 PM 67.1 °F 67.1 °F 100% 29.70 in 5.0 mi Calm Calm - N/A   Overcast
6:35 PM 66.7 °F 66.7 °F 100% 29.71 in 5.0 mi Calm Calm - N/A   Overcast
6:55 PM 66.2 °F 66.2 °F 100% 29.70 in 7.0 mi Calm Calm - N/A Rain Light Rain
7:15 PM 66.2 °F 66.2 °F 100% 29.69 in 5.0 mi Calm Calm - N/A Rain Light Rain
7:35 PM 66.2 °F 66.2 °F 100% 29.70 in 5.0 mi Calm Calm - N/A   Overcast
7:55 PM 66.2 °F 66.2 °F 100% 29.72 in 4.0 mi North 3.5 mph - 0.01 in Rain , Thunderstorm Rain
8:15 PM 66.6 °F 66.6 °F 100% 29.74 in 5.0 mi NNE 3.5 mph - N/A Rain , Thunderstorm Thunderstorms and Rain
8:35 PM 66.6 °F 66.6 °F 100% 29.75 in 2.5 mi Calm Calm - 0.03 in Rain Rain
8:55 PM 67.1 °F 67.1 °F 100% 29.75 in 5.0 mi ESE 3.5 mph - 0.04 in   Drizzle
9:15 PM 66.7 °F 66.7 °F 100% 29.72 in 5.0 mi East 6.9 mph - N/A Rain , Thunderstorm Thunderstorms and Rain
9:35 PM 66.7 °F 66.7 °F 100% 29.74 in 1.5 mi East 8.1 mph - 0.18 in Rain , Thunderstorm Light Thunderstorms and Rain
9:55 PM 66.6 °F 66.6 °F 100% 29.78 in 5.0 mi NNW 6.9 mph - 0.18 in   Overcast
10:15 PM 66.4 °F 66.4 °F 100% 29.79 in 5.0 mi North 4.6 mph - N/A Thunderstorm Overcast
10:55 PM 66.0 °F 66.0 °F 100% 29.79 in 5.0 mi NNE 5.8 mph - 0.01 in Rain Rain
11:15 PM 65.7 °F 65.7 °F 100% 29.81 in 7.0 mi NNE 5.8 mph - 0.01 in Rain Light Rain
11:35 PM 65.3 °F 65.3 °F 100% 29.81 in 7.0 mi North 4.6 mph - 0.01 in Thunderstorm Overcast
11:55 PM 65.3 °F 65.3 °F 100% 29.81 in 7.0 mi North 5.8 mph - 0.01 in Rain , Thunderstorm Light Thunderstorms and Rain